[[{"header":{"parameterUnit":"m.s-1","parameterCategory":2,"la1":30.2992,"la2":30.254,"lo1":-89.0895,"lo2":-89.0443,"dy":0.0025,"dx":0.0025,"nx":19,"ny":19,"refTime":"2026-04-30T21:00:00:Z","depth":"0","parameterNumber":2,"parameterNumberName":"U-component_of_CURRENTS"},"data":[0,0,0,-0.1871,-0.1871,-0.1881,-0.1881,-0.1895,-0.1895,0,0,0,0,0,0,0,0,0,0,0,-0.1862,-0.1862,-0.187,-0.1871,-0.1881,-0.1881,-0.1895,-0.1895,0,0,0,0,0,0,0,0,0,0,0,-0.1862,-0.1862,-0.1862,-0.1871,-0.1881,-0.1881,-0.1895,-0.1886,0,0,0,0,0,0,0,0,0,0,-0.1875,-0.1865,-0.1862,-0.1862,-0.1871,-0.1881,-0.1881,-0.1885,-0.1886,-0.1893,0,-0.1895,0,-0.1901,-0.1897,-0.1897,0,0,0,-0.1865,-0.1864,-0.1873,-0.1862,-0.1871,-0.1881,-0.1875,-0.1886,-0.1887,-0.1895,-0.1895,-0.1896,-0.1901,-0.1897,-0.1897,-0.1909,-0.1909,0,0,-0.1865,-0.1857,-0.1872,-0.1874,-0.1875,-0.1874,-0.1875,-0.1886,-0.1884,-0.1895,-0.1896,-0.1901,-0.1897,-0.1897,-0.1909,-0.1909,0,0,0,-0.1867,-0.1857,-0.1866,-0.1873,-0.1878,-0.1875,-0.1876,-0.1883,-0.1888,-0.1896,-0.1901,-0.1897,-0.1897,-0.1909,-0.1909,-0.1909,0,0,0,-0.1866,-0.1859,-0.1865,-0.186,-0.1878,-0.188,-0.1872,-0.1887,-0.1889,-0.1901,-0.1897,-0.1898,-0.1909,-0.1909,-0.1909,-0.1914,0,0,0,-0.1861,-0.1858,-0.1861,-0.186,-0.1868,-0.188,-0.1885,-0.1887,-0.1892,-0.1897,-0.1898,-0.1909,-0.1909,-0.1909,-0.1914,-0.1946,0,0,0,-0.1851,-0.1847,-0.1861,-0.1859,-0.1868,-0.1876,-0.1885,-0.1886,-0.1888,-0.1897,-0.1909,-0.1909,-0.1909,-0.1914,-0.1945,-0.2033,-0.2043,0,0,-0.184,-0.1845,-0.1845,-0.1858,-0.1862,-0.1874,-0.188,-0.1885,-0.189,-0.1905,-0.1905,-0.1909,-0.1914,-0.1946,-0.2028,-0.2038,0,0,0,-0.1838,-0.1834,-0.1838,-0.1845,-0.186,-0.1874,-0.1881,-0.1889,-0.1896,-0.1892,-0.1907,-0.191,-0.1931,-0.1982,-0.199,-0.2113,-0.1909,-0.1909,-0.1909,-0.1802,-0.1817,-0.1811,-0.1829,-0.1843,-0.187,-0.1884,-0.1896,-0.1896,-0.1898,-0.1908,-0.193,-0.1984,-0.1991,-0.2116,-0.1904,-0.1904,-0.1904,-0.1904,-0.1767,-0.175,-0.1787,-0.1783,-0.1819,-0.1829,-0.1882,-0.1892,-0.1924,-0.1909,-0.1929,-0.1977,-0.2,-0.213,-0.1904,-0.1904,-0.1904,-0.1904,-0.1904,-0.1717,-0.1708,-0.1718,-0.1724,-0.1754,-0.1801,-0.186,-0.1893,-0.1923,-0.1942,-0.2017,-0.2018,-0.2136,-0.1955,-0.1955,-0.1956,-0.1956,-0.1956,-0.1956,-0.1645,-0.1658,-0.1637,-0.1661,-0.1675,-0.1732,-0.1842,-0.1904,-0.1999,-0.2031,-0.2032,-0.2168,-0.1946,-0.1949,-0.1958,-0.1958,-0.1957,-0.1957,-0.1957,-0.1538,-0.1557,-0.1536,-0.154,-0.1599,-0.1693,-0.1813,-0.2017,-0.208,-0.2149,-0.2304,-0.2091,-0.2107,-0.2102,-0.2109,-0.2159,-0.2159,-0.2159,-0.2159,-0.1457,-0.1467,-0.1445,-0.1463,-0.1524,-0.1672,-0.1909,-0.2139,-0.2352,-0.2458,-0.2455,-0.2475,-0.2462,-0.2499,-0.2484,-0.2499,-0.2647,-0.2648,-0.2648,-0.1367,-0.1392,-0.1358,-0.1411,-0.1492,-0.1677,-0.1969,-0.2377,-0.2651,-0.2677,-0.2611,-0.259,-0.2624,-0.2592,-0.2649,-0.2619,-0.2641,0,0]},{"header":{"parameterUnit":"m.s-1","parameterCategory":2,"la1":30.2992,"la2":30.254,"lo1":-89.0895,"lo2":-89.0443,"dy":0.0025,"dx":0.0025,"nx":19,"ny":19,"refTime":"2026-04-30T21:00:00:Z","depth":"0","parameterNumber":3,"parameterNumberName":"V-component_of_CURRENTS"},"data":[0,0,0,-0.0656,-0.0655,-0.0569,-0.0569,-0.0495,-0.0495,0,0,0,0,0,0,0,0,0,0,0,-0.0689,-0.0689,-0.0657,-0.0655,-0.0569,-0.0569,-0.0495,-0.0495,0,0,0,0,0,0,0,0,0,0,0,-0.069,-0.0689,-0.0689,-0.0654,-0.0569,-0.0569,-0.0495,-0.0549,0,0,0,0,0,0,0,0,0,0,-0.0627,-0.0661,-0.0689,-0.0689,-0.0654,-0.0569,-0.0569,-0.0551,-0.0546,-0.0546,0,-0.0538,0,-0.0517,-0.0491,-0.0491,0,0,0,-0.0647,-0.0665,-0.0637,-0.0689,-0.0653,-0.057,-0.0606,-0.0548,-0.0542,-0.0539,-0.0537,-0.0534,-0.0516,-0.0491,-0.0491,-0.0478,-0.0478,0,0,-0.0652,-0.0677,-0.0642,-0.0634,-0.0638,-0.0608,-0.0603,-0.0544,-0.0545,-0.0537,-0.0532,-0.0515,-0.049,-0.049,-0.0478,-0.0478,0,0,0,-0.0671,-0.068,-0.0653,-0.0637,-0.062,-0.0606,-0.06,-0.0547,-0.0537,-0.0531,-0.0514,-0.049,-0.049,-0.0477,-0.0478,-0.0521,0,0,0,-0.0673,-0.0691,-0.0655,-0.0669,-0.0621,-0.0579,-0.0605,-0.0541,-0.0533,-0.0514,-0.049,-0.0489,-0.0477,-0.0478,-0.0519,-0.0549,0,0,0,-0.0692,-0.0693,-0.0684,-0.0671,-0.0636,-0.0579,-0.0565,-0.0538,-0.0523,-0.0491,-0.0489,-0.0477,-0.0477,-0.0518,-0.0545,-0.0562,0,0,0,-0.0718,-0.0717,-0.0685,-0.068,-0.0637,-0.0602,-0.0565,-0.0535,-0.0511,-0.049,-0.0477,-0.0478,-0.0517,-0.0543,-0.056,-0.0621,-0.0634,0,0,-0.0732,-0.0719,-0.0716,-0.0685,-0.0668,-0.0612,-0.0599,-0.0551,-0.0521,-0.0497,-0.0496,-0.052,-0.0545,-0.0561,-0.0654,-0.0666,0,0,0,-0.073,-0.073,-0.0719,-0.07,-0.0663,-0.064,-0.0585,-0.0565,-0.0537,-0.0509,-0.052,-0.0534,-0.0543,-0.0576,-0.0585,-0.057,-0.048,-0.048,-0.048,-0.0787,-0.076,-0.0761,-0.0727,-0.0707,-0.0657,-0.0638,-0.0603,-0.0565,-0.0564,-0.0569,-0.0612,-0.0648,-0.0656,-0.0639,-0.0563,-0.0563,-0.0563,-0.0563,-0.0821,-0.0819,-0.0797,-0.0787,-0.0758,-0.0741,-0.0692,-0.0663,-0.0643,-0.0609,-0.0614,-0.062,-0.0669,-0.0647,-0.0566,-0.0565,-0.0565,-0.0565,-0.0565,-0.0859,-0.0854,-0.0847,-0.0842,-0.0838,-0.0797,-0.081,-0.0752,-0.0695,-0.0698,-0.0717,-0.0717,-0.0697,-0.0694,-0.0695,-0.0695,-0.0695,-0.0695,-0.0695,-0.0896,-0.0888,-0.0909,-0.0898,-0.0914,-0.0919,-0.0875,-0.0861,-0.0817,-0.0778,-0.0778,-0.072,-0.0652,-0.0647,-0.0698,-0.0698,-0.0697,-0.0697,-0.0697,-0.0921,-0.0927,-0.0971,-0.0994,-0.1039,-0.1122,-0.1048,-0.1033,-0.0975,-0.097,-0.0851,-0.0814,-0.0806,-0.0798,-0.0796,-0.0883,-0.0883,-0.0883,-0.0883,-0.0947,-0.0949,-0.1041,-0.1114,-0.1182,-0.1225,-0.1352,-0.1299,-0.1103,-0.1012,-0.0917,-0.0899,-0.0892,-0.0886,-0.0876,-0.0874,-0.0979,-0.0979,-0.0979,-0.0966,-0.1002,-0.1087,-0.1172,-0.1263,-0.1373,-0.156,-0.1595,-0.1231,-0.0978,-0.0885,-0.0881,-0.0844,-0.0835,-0.0814,-0.0801,-0.0793,0,0]}],[{"header":{"parameterUnit":"m.s-1","parameterCategory":2,"la1":30.2992,"la2":30.254,"lo1":-89.0895,"lo2":-89.0443,"dy":0.0025,"dx":0.0025,"nx":19,"ny":19,"refTime":"2026-04-30T21:00:00:Z","depth":"2","parameterNumber":2,"parameterNumberName":"U-component_of_CURRENTS"},"data":[0,0,0,-0.1845,-0.1845,-0.1856,-0.1856,-0.187,-0.1871,0,0,0,0,0,0,0,0,0,0,0,-0.1836,-0.1836,-0.1845,-0.1845,-0.1856,-0.1856,-0.187,-0.1871,0,0,0,0,0,0,0,0,0,0,0,-0.1836,-0.1836,-0.1836,-0.1845,-0.1856,-0.1856,-0.187,-0.1861,0,0,0,0,0,0,0,0,0,0,-0.1849,-0.1839,-0.1836,-0.1836,-0.1845,-0.1856,-0.1856,-0.186,-0.1861,-0.1867,0,-0.1869,0,-0.1875,-0.1872,-0.1872,0,0,0,-0.184,-0.1838,-0.1847,-0.1836,-0.1846,-0.1856,-0.185,-0.1861,-0.1862,-0.1869,-0.187,-0.187,-0.1876,-0.1872,-0.1872,-0.1884,-0.1884,0,0,-0.1839,-0.1832,-0.1846,-0.1848,-0.1849,-0.1849,-0.185,-0.1861,-0.1859,-0.187,-0.1871,-0.1876,-0.1872,-0.1872,-0.1884,-0.1884,0,0,0,-0.1841,-0.1831,-0.184,-0.1847,-0.1852,-0.185,-0.1851,-0.1859,-0.1863,-0.1871,-0.1876,-0.1872,-0.1873,-0.1884,-0.1884,-0.1884,0,0,0,-0.184,-0.1833,-0.184,-0.1835,-0.1852,-0.1855,-0.1847,-0.1862,-0.1864,-0.1876,-0.1872,-0.1873,-0.1884,-0.1884,-0.1885,-0.1889,0,0,0,-0.1835,-0.1833,-0.1836,-0.1835,-0.1843,-0.1855,-0.186,-0.1863,-0.1868,-0.1872,-0.1873,-0.1884,-0.1884,-0.1885,-0.1889,-0.1921,0,0,0,-0.1825,-0.1821,-0.1835,-0.1834,-0.1843,-0.1851,-0.186,-0.1861,-0.1863,-0.1873,-0.1884,-0.1884,-0.1885,-0.1889,-0.1921,-0.1974,-0.1981,0,0,-0.1814,-0.182,-0.182,-0.1833,-0.1837,-0.1849,-0.1855,-0.1861,-0.1865,-0.188,-0.188,-0.1885,-0.1889,-0.1921,-0.1969,-0.1977,0,0,0,-0.1812,-0.1808,-0.1813,-0.1819,-0.1835,-0.1849,-0.1856,-0.1864,-0.1872,-0.1868,-0.1883,-0.1886,-0.1906,-0.1937,-0.1942,-0.1884,-0.1884,-0.1884,-0.1884,-0.1777,-0.1792,-0.1786,-0.1804,-0.1818,-0.1845,-0.1859,-0.1872,-0.1872,-0.1875,-0.1884,-0.1906,-0.1938,-0.1943,-0.188,-0.188,-0.188,-0.188,-0.188,-0.1742,-0.1725,-0.1762,-0.1758,-0.1794,-0.1805,-0.1858,-0.1868,-0.19,-0.1886,-0.1906,-0.1933,-0.1949,-0.188,-0.188,-0.188,-0.188,-0.188,-0.188,-0.1693,-0.1683,-0.1694,-0.17,-0.173,-0.1778,-0.1836,-0.1869,-0.1899,-0.1918,-0.197,-0.1971,-0.1922,-0.1932,-0.1932,-0.1932,-0.1932,-0.1933,-0.1933,-0.1621,-0.1634,-0.1614,-0.1638,-0.1652,-0.1709,-0.1819,-0.188,-0.196,-0.1982,-0.1983,-0.1924,-0.1923,-0.1925,-0.1935,-0.1935,-0.1934,-0.1934,-0.1934,-0.1514,-0.1534,-0.1513,-0.1517,-0.1576,-0.1624,-0.1776,-0.1966,-0.2036,-0.2093,-0.203,-0.2027,-0.2039,-0.2035,-0.204,-0.208,-0.208,-0.208,-0.208,-0.1433,-0.1444,-0.1423,-0.1441,-0.1501,-0.1588,-0.1718,-0.1798,-0.1919,-0.1899,-0.1906,-0.1876,-0.1877,-0.1877,-0.1876,-0.1877,-0.1873,-0.1872,-0.1871,-0.1342,-0.1368,-0.1335,-0.1389,-0.1469,-0.1547,-0.161,-0.1604,-0.1696,-0.1849,-0.1727,-0.2093,-0.207,-0.2063,-0.2079,-0.2072,-0.2079,0,0]},{"header":{"parameterUnit":"m.s-1","parameterCategory":2,"la1":30.2992,"la2":30.254,"lo1":-89.0895,"lo2":-89.0443,"dy":0.0025,"dx":0.0025,"nx":19,"ny":19,"refTime":"2026-04-30T21:00:00:Z","depth":"2","parameterNumber":3,"parameterNumberName":"V-component_of_CURRENTS"},"data":[0,0,0,-0.0602,-0.06,-0.0516,-0.0516,-0.0441,-0.0441,0,0,0,0,0,0,0,0,0,0,0,-0.0635,-0.0634,-0.0602,-0.06,-0.0516,-0.0516,-0.0441,-0.0441,0,0,0,0,0,0,0,0,0,0,0,-0.0635,-0.0634,-0.0634,-0.06,-0.0516,-0.0516,-0.0441,-0.0495,0,0,0,0,0,0,0,0,0,0,-0.0572,-0.0606,-0.0634,-0.0634,-0.06,-0.0517,-0.0516,-0.0497,-0.0492,-0.0491,0,-0.0484,0,-0.0463,-0.0437,-0.0437,0,0,0,-0.0592,-0.061,-0.0583,-0.0634,-0.0599,-0.0517,-0.0552,-0.0494,-0.0488,-0.0484,-0.0482,-0.0479,-0.0462,-0.0437,-0.0437,-0.0423,-0.0423,0,0,-0.0597,-0.0622,-0.0587,-0.0579,-0.0585,-0.0555,-0.055,-0.0489,-0.0491,-0.0482,-0.0477,-0.046,-0.0437,-0.0436,-0.0423,-0.0423,0,0,0,-0.0616,-0.0626,-0.0598,-0.0583,-0.0566,-0.0553,-0.0546,-0.0493,-0.0483,-0.0476,-0.046,-0.0436,-0.0436,-0.0422,-0.0423,-0.0467,0,0,0,-0.0618,-0.0637,-0.0601,-0.0615,-0.0567,-0.0525,-0.0552,-0.0487,-0.0479,-0.046,-0.0436,-0.0435,-0.0422,-0.0422,-0.0465,-0.0494,0,0,0,-0.0637,-0.0639,-0.063,-0.0617,-0.0583,-0.0526,-0.0511,-0.0484,-0.047,-0.0437,-0.0435,-0.0422,-0.0422,-0.0464,-0.0491,-0.0507,0,0,0,-0.0663,-0.0662,-0.0631,-0.0626,-0.0583,-0.0548,-0.0511,-0.0482,-0.0457,-0.0436,-0.0422,-0.0423,-0.0463,-0.0489,-0.0506,-0.0536,-0.0547,0,0,-0.0677,-0.0665,-0.0661,-0.0631,-0.0614,-0.0558,-0.0544,-0.0497,-0.0467,-0.0442,-0.0441,-0.0466,-0.0491,-0.0507,-0.0569,-0.0579,0,0,0,-0.0675,-0.0675,-0.0664,-0.0646,-0.0608,-0.0585,-0.0531,-0.0511,-0.0483,-0.0455,-0.0465,-0.048,-0.0488,-0.0503,-0.0511,-0.0425,-0.0425,-0.0425,-0.0425,-0.0733,-0.0705,-0.0706,-0.0672,-0.0652,-0.0601,-0.0583,-0.0548,-0.051,-0.051,-0.0515,-0.0558,-0.0574,-0.0581,-0.0508,-0.0509,-0.0509,-0.0509,-0.0509,-0.0766,-0.0764,-0.0742,-0.0731,-0.0703,-0.0686,-0.0637,-0.0608,-0.0588,-0.0555,-0.056,-0.0548,-0.0592,-0.0512,-0.0512,-0.0511,-0.0511,-0.0511,-0.051,-0.0805,-0.0799,-0.0793,-0.0787,-0.0784,-0.0743,-0.0756,-0.0698,-0.0642,-0.0644,-0.0643,-0.0642,-0.0586,-0.0641,-0.0641,-0.0642,-0.0642,-0.0642,-0.0642,-0.0843,-0.0834,-0.0856,-0.0845,-0.086,-0.0865,-0.0821,-0.0807,-0.0751,-0.0702,-0.0702,-0.0603,-0.0598,-0.0593,-0.0645,-0.0645,-0.0644,-0.0644,-0.0644,-0.0866,-0.0873,-0.0918,-0.0942,-0.0987,-0.1019,-0.0982,-0.0955,-0.0904,-0.089,-0.0728,-0.0725,-0.0713,-0.0706,-0.0703,-0.0781,-0.0781,-0.0781,-0.0781,-0.0892,-0.0894,-0.0987,-0.1061,-0.1129,-0.1108,-0.1139,-0.0974,-0.0824,-0.0694,-0.0697,-0.0664,-0.0661,-0.0643,-0.0637,-0.0631,-0.069,-0.0689,-0.0689,-0.0909,-0.0946,-0.1032,-0.1118,-0.1209,-0.1205,-0.1186,-0.0941,-0.0673,-0.0678,-0.0601,-0.079,-0.0749,-0.0742,-0.0718,-0.0708,-0.0699,0,0]}],[{"header":{"parameterUnit":"m.s-1","parameterCategory":2,"la1":30.2992,"la2":30.254,"lo1":-89.0895,"lo2":-89.0443,"dy":0.0025,"dx":0.0025,"nx":19,"ny":19,"refTime":"2026-04-30T21:00:00:Z","depth":"4","parameterNumber":2,"parameterNumberName":"U-component_of_CURRENTS"},"data":[0,0,0,-0.1083,-0.1085,-0.1175,-0.1175,-0.124,-0.124,0,0,0,0,0,0,0,0,0,0,0,-0.1055,-0.1055,-0.1083,-0.1085,-0.1175,-0.1175,-0.124,-0.124,0,0,0,0,0,0,0,0,0,0,0,-0.1054,-0.1055,-0.1056,-0.1085,-0.1175,-0.1175,-0.124,-0.1185,0,0,0,0,0,0,0,0,0,0,-0.1104,-0.1086,-0.1055,-0.1056,-0.1086,-0.1175,-0.1175,-0.1183,-0.1188,-0.1184,0,-0.1204,0,-0.1221,-0.1243,-0.1243,0,0,0,-0.1086,-0.1082,-0.1104,-0.1056,-0.1087,-0.1174,-0.1135,-0.1186,-0.1192,-0.1191,-0.1205,-0.1208,-0.1222,-0.1244,-0.1244,-0.1299,-0.1299,0,0,-0.1081,-0.1072,-0.11,-0.1108,-0.1116,-0.1132,-0.1137,-0.119,-0.1199,-0.1205,-0.121,-0.1223,-0.1244,-0.1244,-0.1298,-0.1299,0,0,0,-0.1066,-0.1068,-0.109,-0.1105,-0.1124,-0.1134,-0.1141,-0.1197,-0.1204,-0.121,-0.1224,-0.1244,-0.1245,-0.1298,-0.1298,-0.1303,0,0,0,-0.1063,-0.1059,-0.1088,-0.1083,-0.1123,-0.1169,-0.1146,-0.1201,-0.1207,-0.1224,-0.1244,-0.1245,-0.1298,-0.1298,-0.1303,-0.1304,0,0,0,-0.1049,-0.1058,-0.107,-0.1082,-0.112,-0.1169,-0.118,-0.1203,-0.1215,-0.1244,-0.1245,-0.1298,-0.1298,-0.1302,-0.1303,-0.1333,0,0,0,-0.1034,-0.1046,-0.107,-0.1092,-0.112,-0.1163,-0.118,-0.122,-0.1246,-0.1244,-0.1298,-0.1298,-0.1302,-0.1302,-0.1332,-0.1207,0,0,0,-0.1035,-0.1047,-0.1059,-0.1081,-0.1116,-0.1151,-0.1192,-0.1235,-0.1252,-0.1276,-0.1278,-0.1303,-0.1303,-0.1333,-0.1244,0,0,0,0,-0.1049,-0.1056,-0.1072,-0.1103,-0.114,-0.1183,-0.1225,-0.1247,-0.129,-0.1271,-0.1314,-0.1314,-0.1333,-0.1257,-0.1301,-0.1301,-0.1301,-0.1301,-0.1301,-0.1023,-0.105,-0.107,-0.1109,-0.1144,-0.1209,-0.1245,-0.1284,-0.1295,-0.1319,-0.1326,-0.1363,-0.1283,-0.1336,-0.1336,-0.1336,-0.1336,-0.1336,-0.1336,-0.1005,-0.1005,-0.1063,-0.1091,-0.1148,-0.1191,-0.1265,-0.1293,-0.1348,-0.1343,-0.1362,-0.1277,-0.1337,-0.1337,-0.1337,-0.1337,-0.1336,-0.1336,-0.1336,-0.096,-0.0961,-0.1002,-0.105,-0.1113,-0.1184,-0.1243,-0.1304,-0.1353,-0.1377,-0.1315,-0.1376,-0.1367,-0.1395,-0.1395,-0.1395,-0.1395,-0.1396,-0.1396,-0.088,-0.0922,-0.0939,-0.1005,-0.1042,-0.1112,-0.1236,-0.1283,-0.1351,-0.1313,-0.1388,-0.1383,-0.1381,-0.1372,-0.1398,-0.1397,-0.1397,-0.1397,-0.1397,-0.0783,-0.0822,-0.0841,-0.0876,-0.0966,-0.1017,-0.1154,-0.1237,-0.1281,-0.1281,-0.1283,-0.1288,-0.1279,-0.128,-0.1267,-0.1263,-0.1261,-0.126,0,-0.0706,-0.0729,-0.0761,-0.0803,-0.0854,-0.0959,-0.1009,-0.11,-0.1173,-0.1131,-0.127,-0.1269,-0.1273,-0.1259,-0.1258,-0.1239,0,0,0,-0.0629,-0.0663,-0.0663,-0.0741,-0.0803,-0.0899,-0.1021,-0.1031,-0.1148,-0.1178,-0.1222,-0.1232,-0.1342,-0.1404,-0.1404,-0.1401,-0.1387,0,0]},{"header":{"parameterUnit":"m.s-1","parameterCategory":2,"la1":30.2992,"la2":30.254,"lo1":-89.0895,"lo2":-89.0443,"dy":0.0025,"dx":0.0025,"nx":19,"ny":19,"refTime":"2026-04-30T21:00:00:Z","depth":"4","parameterNumber":3,"parameterNumberName":"V-component_of_CURRENTS"},"data":[0,0,0,0.006,0.0061,0.0103,0.0103,0.014,0.0141,0,0,0,0,0,0,0,0,0,0,0,0.0043,0.0043,0.006,0.0061,0.0103,0.0103,0.014,0.0141,0,0,0,0,0,0,0,0,0,0,0,0.0043,0.0043,0.0043,0.0061,0.0103,0.0103,0.014,0.0114,0,0,0,0,0,0,0,0,0,0,0.0076,0.0057,0.0043,0.0043,0.0061,0.0102,0.0103,0.0113,0.0116,0.0115,0,0.0117,0,0.0128,0.0142,0.0142,0,0,0,0.0066,0.0055,0.0069,0.0043,0.0062,0.0102,0.0085,0.0115,0.0118,0.0119,0.0118,0.0119,0.0129,0.0142,0.0143,0.0131,0.0131,0,0,0.0064,0.005,0.0067,0.007,0.0066,0.0084,0.0086,0.0117,0.0115,0.0118,0.012,0.013,0.0143,0.0143,0.0132,0.0131,0,0,0,0.0054,0.0048,0.0061,0.0069,0.0077,0.0085,0.0088,0.0114,0.0119,0.0121,0.013,0.0143,0.0143,0.0132,0.0131,0.0091,0,0,0,0.0053,0.0042,0.006,0.0052,0.0076,0.0097,0.0084,0.0117,0.0121,0.013,0.0143,0.0143,0.0132,0.0132,0.0093,0.007,0,0,0,0.0042,0.0041,0.0044,0.0051,0.0068,0.0097,0.0104,0.0118,0.0126,0.0142,0.0143,0.0132,0.0132,0.0095,0.0073,0.0053,0,0,0,0.0029,0.0027,0.0044,0.0042,0.0067,0.0079,0.0104,0.0114,0.0124,0.0143,0.0132,0.0131,0.0095,0.0075,0.0054,0.0024,0,0,0,0.0019,0.0025,0.0024,0.0041,0.0042,0.0074,0.0071,0.0095,0.0113,0.0123,0.0123,0.0093,0.0073,0.0053,-0.0019,0,0,0,0,0.0017,0.0014,0.0017,0.0022,0.0038,0.0042,0.0071,0.0078,0.0084,0.0116,0.0089,0.0078,0.0066,0.0054,0.0128,0.0128,0.0128,0.0128,0.0128,-0.0012,-0.0004,-0.0013,-0.0003,0.0001,0.0019,0.0021,0.0034,0.0059,0.0049,0.0042,-0.0005,-0.0021,0.0043,0.0043,0.0042,0.0042,0.0042,0.0042,-0.0032,-0.0031,-0.004,-0.0046,-0.0044,-0.0047,-0.0033,-0.002,-0.0024,0.0002,-0.0007,0.0009,0.0038,0.0039,0.0039,0.004,0.004,0.004,0.0041,-0.0041,-0.0039,-0.0056,-0.0079,-0.0103,-0.0097,-0.0129,-0.0103,-0.007,-0.008,-0.0088,-0.0035,-0.0028,-0.0084,-0.0084,-0.0084,-0.0084,-0.0085,-0.0085,-0.0033,-0.0049,-0.0086,-0.0112,-0.0152,-0.0184,-0.0188,-0.0187,-0.0147,-0.0144,-0.0095,-0.0048,-0.0044,-0.0035,-0.0088,-0.0087,-0.0087,-0.0087,-0.0086,-0.0003,-0.0035,-0.0096,-0.0144,-0.0244,-0.0274,-0.0272,-0.0258,-0.0261,-0.0239,-0.0172,-0.0167,-0.0156,-0.0149,-0.0143,-0.023,-0.0231,-0.0231,0,0.0012,-0.0005,-0.0116,-0.022,-0.0318,-0.0338,-0.0366,-0.0347,-0.0284,-0.0288,-0.0251,-0.0178,-0.0173,-0.0159,-0.0154,-0.0149,0,0,0,0.0038,-0.0014,-0.0095,-0.023,-0.0362,-0.0387,-0.0378,-0.0372,-0.0293,-0.0286,-0.0246,-0.0242,-0.0153,-0.0097,-0.0067,-0.0062,-0.0046,0,0]}]]